Other Surface Observations
Issued by NWS

Home | Current Version | Previous Version | Text Only | Print | Product List | Glossary On
Versions: 1 2 3 4 5 6 7 8 9 10 11 12 13 14 15 16 17 18 19 20 21 22 23 24 25 26 27 28 29 30 31 32 33 34 35 36 37 38 39 40 41 42 43 44 45 46 47 48 49 50
000
SXUS52 KTAE 190319
OSOTAE
OSOTAE
North Florida/South Alabama/Southwest Georgia Weather Roundup
National Weather Service Tallahassee Florida
1100 PM EDT FRI AUG 18 2017

Note: "fair" indicates few or no clouds below 12,000 feet with no
significant weather and/or obstructions to visibility.

!FLZ017-115-028-034-025-190400
...North Florida...

CITY           SKY/WX    TMP DP  RH WIND       PRES   REMARKS
TALLAHASSEE    MOCLDY    81  79  94 CALM      29.98F HX  90
APALACHICOLA   FAIR      84  80  88 W6        29.98F HX  97
PERRY          FAIR      78  76  91 CALM      30.00F
CROSS CITY     FAIR      75  75  98 E3        30.05R
JACKSONVILLE   FAIR      78  76  93 W6        30.00R
$$

!FLZ112-006-005-002-011-190400
...Florida Panhandle...

CITY           SKY/WX    TMP DP  RH WIND       PRES   REMARKS
MARIANNA       FAIR      82  76  81 CALM      29.98R
BONIFAY        NOT AVBL
PANAMA CITY NW FAIR      81  78  91 SW3       29.97F
TYNDALL AFB    CLEAR     85  80  84 W7        29.98S HX  98
TYND DRONE APT FAIR      84  80  87 CALM      29.98F HX  96
DE FUNIAK SPR  FAIR      79  74  84 CALM      30.00S
EGLIN AFB      PTCLDY    81  76  84 NW3       29.97F
DESTIN         FAIR      85  76  74 VRB3      29.97F HX  94
HURLBURT       CLEAR     81  74  80 CALM      29.96F
CRESTVIEW      FAIR      80  74  81 CALM      29.99F
PENSACOLA      FAIR      80  70  71 NW5       29.98S
$$

!ALZ063-066-190400
...South Alabama...

CITY           SKY/WX    TMP DP  RH WIND       PRES   REMARKS
DOTHAN         FAIR      83  75  77 W5        30.02R HX  90
OZARK CAIRNS   FAIR      80  75  84 CALM      29.98S
FT RUCKER HELI FAIR      77  75  93 CALM      29.98S
RUCKER HELI 3  FAIR      82  74  75 NW3       29.98F
RUCKER HELI 2  FAIR      78  76  95 CALM      29.98R
FLORALA APT      N/A    N/A N/A N/A MISG      30.00F
ANDALUSIA      FAIR      81  76  84 CALM      29.98S
TROY           FAIR      76  76 100 CALM      30.00S
EUFALA         FAIR      76  74  93 W3        29.97S
MOBILE         MOCLDY    77  73  87 CALM      30.01S
$$

!GAZ120>161-190400
...Southwest and South Central Georgia...

CITY           SKY/WX    TMP DP  RH WIND       PRES   REMARKS
THOMASVILLE    FAIR      81  81 100 SW5       30.00F HX  91
BAINBRIDGE     FAIR      82  81  94 CALM      29.99R HX  95
MOODY AFB      FAIR      78  74  87 S6        29.98S
VALDOSTA       FAIR      77  75  93 S6        29.99F
MOULTRIE       FAIR      81  77  89 CALM      30.00S
BLAKELY        FAIR      79  75  89 CALM      29.99S
ALBANY         FAIR      82  77  84 CALM      30.00R HX  90
TIFTON         FAIR      80  80  99 SW3       29.98F
FITZGERALD     FAIR      81  78  91 S3        30.01S HX  90
CORDELE        FAIR      84  76  77 CALM      29.99S HX  94
AMERICUS       FAIR      73  73 100 CALM      30.01R
HOMERVILLE     FAIR      77  72  83 SW3       30.00S
$$

!GMZ750-755-770-775-190400
...Coastal and Buoy Obs...

STATION/POSITION TIME  TEMP    WIND        PRES    VSBY  WAVE
                       AIR SEA DIR/SP/G                  HT/PER
                 (UTC) (F)     (DEG/KT/KT) (MB)    (MI)  (FT/S)
KEATON BEACH     0300   84     290/ 11/ 13 1015.2F
CEDAR KEY        0300   82     180/  6/  7 1016.7R
C TOWER          0300   85                 1016.2R
APALACHICOLA BUO 0250   84 86  330/  6/  8 1015.7R         2/ 5
PANAMA CITY BUOY 0250   86 87  310/ 10/ 12 1015.0F         2/ 5
MOBILE BUOY      0300   86 89  240/  6/  8 1015.5
ORANGE BCH AL BU 0250   84 87  310/  8/ 10 1015.0F         1/ 3
$$




USA.gov is the U.S. government's official web portal to all federal, state and local government web resources and services.